TimePDT,TemperatureF,Dew PointF,Humidity,Sea Level PressureIn,VisibilityMPH,Wind Direction,Wind SpeedMPH,Gust SpeedMPH,PrecipitationIn,Events,Conditions,WindDirDegrees,DateUTC
12:56 AM,64.9,45.0,48,30.09,10.0,SSE,3.5,-,N/A,,Clear,160,2013-05-11 07:56:00
1:56 AM,64.0,45.0,50,30.09,10.0,SSE,4.6,-,N/A,,Clear,150,2013-05-11 08:56:00
2:56 AM,64.9,46.0,50,30.09,10.0,East,5.8,-,N/A,,Clear,80,2013-05-11 09:56:00
3:56 AM,64.0,46.0,52,30.09,10.0,East,8.1,-,N/A,,Clear,80,2013-05-11 10:56:00
4:56 AM,62.1,46.0,56,30.10,10.0,Variable,3.5,-,N/A,,Clear,0,2013-05-11 11:56:00
5:56 AM,60.1,46.0,60,30.10,10.0,SE,4.6,-,N/A,,Clear,140,2013-05-11 12:56:00
6:56 AM,62.1,46.9,58,30.11,10.0,East,3.5,-,N/A,,Clear,90,2013-05-11 13:56:00
7:56 AM,63.0,48.0,58,30.12,10.0,ENE,3.5,-,N/A,,Clear,70,2013-05-11 14:56:00
8:56 AM,68.0,50.0,52,30.12,10.0,Variable,4.6,-,N/A,,Clear,0,2013-05-11 15:56:00
9:56 AM,72.0,50.0,46,30.12,10.0,NE,4.6,-,N/A,,Clear,50,2013-05-11 16:56:00
10:56 AM,75.9,48.0,37,30.10,10.0,Calm,Calm,-,N/A,,Clear,0,2013-05-11 17:56:00
11:56 AM,79.0,48.0,34,30.09,10.0,North,5.8,-,N/A,,Clear,10,2013-05-11 18:56:00
12:56 PM,84.0,48.0,28,30.07,10.0,NE,3.5,-,N/A,,Clear,40,2013-05-11 19:56:00
1:56 PM,86.0,46.9,26,30.05,10.0,West,4.6,-,N/A,,Clear,280,2013-05-11 20:56:00
2:56 PM,89.1,48.0,24,30.02,10.0,North,4.6,-,N/A,,Clear,360,2013-05-11 21:56:00
3:56 PM,91.0,48.0,23,30.00,10.0,Calm,Calm,-,N/A,,Clear,0,2013-05-11 22:56:00
4:56 PM,91.0,46.9,22,29.99,10.0,West,6.9,-,N/A,,Clear,270,2013-05-11 23:56:00
5:56 PM,87.1,45.0,23,29.99,10.0,NW,8.1,-,N/A,,Clear,310,2013-05-12 00:56:00
6:56 PM,86.0,45.0,24,29.97,10.0,NW,5.8,-,N/A,,Clear,320,2013-05-12 01:56:00
7:56 PM,82.0,46.0,28,29.97,10.0,Calm,Calm,-,N/A,,Clear,0,2013-05-12 02:56:00
8:56 PM,77.0,48.9,37,29.97,10.0,Calm,Calm,-,N/A,,Clear,0,2013-05-12 03:56:00
9:56 PM,75.9,46.9,36,29.98,10.0,Calm,Calm,-,N/A,,Clear,0,2013-05-12 04:56:00
10:56 PM,72.0,46.0,40,29.98,10.0,SW,4.6,-,N/A,,Clear,220,2013-05-12 05:56:00
11:56 PM,70.0,48.9,47,29.99,10.0,Calm,Calm,-,N/A,,Clear,0,2013-05-12 06:56:00